Jefferson, NC

6:27 PM EDT on June 22, 2017 (GMT -0400)
Ashe County

Weather History for KGEV - January, 2007

Change the Weather History Date:

Wednesday, January 3, 2007

  Actual Average Record
Temperature  
Mean Temperature 42 °F -  
Max Temperature 55 °F 44 °F 66 °F (2004)
Min Temperature 30 °F 24 °F -2 °F (1979)
Degree Days  
Heating Degree Days 22    
Moisture  
Dew Point 24 °F    
Average Humidity 52    
Maximum Humidity 80    
Minimum Humidity 29    
Precipitation  
Precipitation 0.00 in - - ()
Sea Level Pressure  
Sea Level Pressure 30.35 in    
Wind  
Wind Speed 2 mph (SSE)    
Max Wind Speed 9 mph    
Max Gust Speed -    
Visibility 10 miles    
Events      
Averages and records for this station are not official NWS values.
T = Trace of Precipitation, MM = Missing Value Source: NWS Daily Summary

Daily Weather History Graph

Daily Weather History Graph

Search for Another Location

Airport or City:

Trip Planner

Search our weather history database for the weather conditions in past years. The results will help you decide how hot, cold, wet, or windy it might be!

Date:

Astronomy

Jan. 03, 2007 Rise Set
Actual Time 7:37 AM EST 5:22 PM EST
Civil Twilight 7:09 AM EST 5:51 PM EST
Nautical Twilight 6:36 AM EST 6:23 PM EST
Astronomical Twilight 6:05 AM EST 6:54 PM EST
Moon 5:25 PM EST (1/3) 7:59 AM EST (1/3)
Length of Visible Light 10h 42m
Length of Day
9h 44m
Full, 100% of the Moon is Illuminated
Jan 3
Full
Jan 11
Last Quarter
Jan 18
New
Jan 25
First Quarter
Feb 2
Full

Hourly Weather History & Observations

Time (EST) Temp. Windchill Dew Point Humidity Pressure Visibility Wind Dir Wind Speed Gust Speed Precip Events Conditions
12:01 AM 33.8 °F 30.8 °F 24.8 °F 70% 30.38 in 10.0 mi SSW 3.5 mph - N/A   Clear
12:21 AM 33.8 °F - 26.6 °F 75% 30.37 in 10.0 mi Calm Calm - N/A   Clear
12:41 AM 30.2 °F 26.7 °F 24.8 °F 80% 30.37 in 10.0 mi South 3.5 mph - N/A   Clear
1:21 AM 37.4 °F - 23.0 °F 56% 30.36 in 10.0 mi Calm Calm - N/A   Clear
2:01 AM 33.8 °F - 21.2 °F 60% 30.36 in 10.0 mi Calm Calm - N/A   Clear
2:21 AM 35.6 °F 31.7 °F 23.0 °F 60% 30.37 in 10.0 mi SE 4.6 mph - N/A   Clear
2:41 AM 33.8 °F 30.8 °F 23.0 °F 65% 30.37 in 10.0 mi SSE 3.5 mph - N/A   Clear
3:01 AM 33.8 °F 30.8 °F 24.8 °F 70% 30.38 in 10.0 mi SSE 3.5 mph - N/A   Clear
3:21 AM 33.8 °F - 23.0 °F 65% 30.38 in 10.0 mi Calm Calm - N/A   Clear
3:41 AM 35.6 °F 32.8 °F 21.2 °F 56% 30.38 in 10.0 mi South 3.5 mph - N/A   Clear
4:04 AM 35.6 °F - 21.2 °F 56% 30.37 in 10.0 mi Calm Calm - N/A   Clear
4:21 AM 33.8 °F - 21.2 °F 60% 30.37 in 10.0 mi Calm Calm - N/A   Clear
4:41 AM 35.6 °F - 21.2 °F 56% 30.37 in 10.0 mi Calm Calm - N/A   Clear
5:01 AM 33.8 °F - 21.2 °F 60% 30.37 in 10.0 mi Calm Calm - N/A   Clear
5:22 AM 33.8 °F - 19.4 °F 56% 30.37 in 10.0 mi Calm Calm - N/A   Clear
5:41 AM 33.8 °F - 19.4 °F 56% 30.37 in 10.0 mi Calm Calm - N/A   Clear
6:01 AM 33.8 °F - 19.4 °F 56% 30.38 in 10.0 mi Calm Calm - N/A   Clear
6:21 AM 33.8 °F - 19.4 °F 56% 30.38 in 10.0 mi Calm Calm - N/A   Clear
6:41 AM 33.8 °F - 21.2 °F 60% 30.39 in 10.0 mi Calm Calm - N/A   Clear
7:01 AM 33.8 °F - 19.4 °F 56% 30.39 in 10.0 mi Calm Calm - N/A   Clear
7:22 AM 30.2 °F - 19.4 °F 64% 30.39 in 10.0 mi Calm Calm - N/A   Clear
7:41 AM 33.8 °F - 19.4 °F 56% 30.39 in 10.0 mi Calm Calm - N/A   Clear
8:01 AM 33.8 °F - 19.4 °F 56% 30.40 in 10.0 mi Calm Calm - N/A   Clear
8:21 AM 33.8 °F - 21.2 °F 60% 30.40 in 10.0 mi Calm Calm - N/A   Clear
8:41 AM 35.6 °F - 19.4 °F 52% 30.40 in 10.0 mi Calm Calm - N/A   Clear
9:01 AM 33.8 °F - 23.0 °F 65% 30.41 in 10.0 mi Calm Calm - N/A   Clear
9:21 AM 37.4 °F - 24.8 °F 60% 30.41 in 10.0 mi Calm Calm - N/A   Clear
9:41 AM 37.4 °F - 26.6 °F 65% 30.41 in 10.0 mi Calm Calm - N/A   Clear
10:01 AM 41.0 °F - 17.6 °F 39% 30.42 in 10.0 mi Calm Calm - N/A   Clear
10:21 AM 42.8 °F - 21.2 °F 42% 30.42 in 10.0 mi Calm Calm - N/A   Clear
11:01 AM 46.4 °F - 23.0 °F 40% 30.41 in 10.0 mi Calm Calm - N/A   Clear
11:21 AM 48.2 °F - 23.0 °F 37% 30.40 in 10.0 mi SE 4.6 mph - N/A   Clear
11:41 AM 51.8 °F - 23.0 °F 33% 30.39 in 10.0 mi SE 5.8 mph - N/A   Clear
12:01 PM 51.8 °F - 24.8 °F 35% 30.38 in 10.0 mi SE 4.6 mph - N/A   Clear
12:21 PM 53.6 °F - 24.8 °F 33% 30.37 in 10.0 mi SE 5.8 mph - N/A   Clear
12:41 PM 53.6 °F - 24.8 °F 33% 30.36 in 10.0 mi SE 6.9 mph - N/A   Clear
1:01 PM 53.6 °F - 26.6 °F 35% 30.35 in 10.0 mi SE 5.8 mph - N/A   Clear
1:22 PM 53.6 °F - 26.6 °F 35% 30.33 in 10.0 mi SE 6.9 mph - N/A   Clear
1:42 PM 53.6 °F - 24.8 °F 33% 30.32 in 10.0 mi SE 5.8 mph - N/A   Clear
2:01 PM 55.4 °F - 23.0 °F 29% 30.32 in 10.0 mi SSE 5.8 mph - N/A   Clear
2:21 PM 55.4 °F - 23.0 °F 29% 30.31 in 10.0 mi SSE 9.2 mph - N/A   Clear
2:41 PM 53.6 °F - 24.8 °F 33% 30.31 in 10.0 mi SE 5.8 mph - N/A   Clear
3:01 PM 53.6 °F - 24.8 °F 33% 30.31 in 10.0 mi SE 5.8 mph - N/A   Clear
3:21 PM 53.6 °F - 26.6 °F 35% 30.31 in 10.0 mi SE 5.8 mph - N/A   Clear
3:41 PM 53.6 °F - 26.6 °F 35% 30.31 in 10.0 mi SSE 5.8 mph - N/A   Clear
4:01 PM 51.8 °F - 26.6 °F 38% 30.31 in 10.0 mi SSE 4.6 mph - N/A   Clear
4:22 PM 50.0 °F - 26.6 °F 40% 30.32 in 10.0 mi SSE 5.8 mph - N/A   Clear
4:41 PM 46.4 °F 43.5 °F 24.8 °F 43% 30.32 in 10.0 mi SSE 5.8 mph - N/A   Clear
5:01 PM 44.6 °F 43.1 °F 26.6 °F 49% 30.32 in 10.0 mi South 3.5 mph - N/A   Clear
5:23 PM 44.6 °F 42.2 °F 24.8 °F 46% 30.32 in 10.0 mi South 4.6 mph - N/A   Clear
5:41 PM 41.0 °F 38.0 °F 24.8 °F 53% 30.32 in 10.0 mi SSE 4.6 mph - N/A   Clear
6:01 PM 41.0 °F 37.1 °F 24.8 °F 53% 30.31 in 10.0 mi SSE 5.8 mph - N/A   Clear
6:21 PM 42.8 °F 40.1 °F 24.8 °F 49% 30.31 in 10.0 mi South 4.6 mph - N/A   Clear
6:41 PM 42.8 °F 41.1 °F 24.8 °F 49% 30.31 in 10.0 mi South 3.5 mph - N/A   Clear
7:01 PM 41.0 °F 39.0 °F 26.6 °F 57% 30.31 in 10.0 mi South 3.5 mph - N/A   Clear
7:21 PM 41.0 °F 38.0 °F 26.6 °F 57% 30.31 in 10.0 mi South 4.6 mph - N/A   Clear
7:41 PM 41.0 °F 37.1 °F 28.4 °F 61% 30.31 in 10.0 mi South 5.8 mph - N/A   Clear
8:01 PM 42.8 °F - 30.2 °F 61% 30.31 in 10.0 mi Calm Calm - N/A   Clear
8:21 PM 42.8 °F - 30.2 °F 61% 30.31 in 10.0 mi Calm Calm - N/A   Clear
8:41 PM 42.8 °F - 30.2 °F 61% 30.31 in 10.0 mi Calm Calm - N/A   Clear
9:01 PM 42.8 °F 40.1 °F 30.2 °F 61% 30.31 in 10.0 mi South 4.6 mph - N/A   Clear
9:21 PM 44.6 °F 40.7 °F 33.8 °F 66% 30.31 in 10.0 mi SSW 6.9 mph - N/A   Clear
9:41 PM 44.6 °F 43.1 °F 33.8 °F 66% 30.31 in 10.0 mi SSW 3.5 mph - N/A   Scattered Clouds
10:01 PM 44.6 °F - 33.8 °F 66% 30.31 in 10.0 mi Calm Calm - N/A   Mostly Cloudy
10:21 PM 44.6 °F 41.4 °F 35.6 °F 71% 30.31 in 10.0 mi South 5.8 mph - N/A   Mostly Cloudy
10:41 PM 44.6 °F 40.7 °F 33.8 °F 66% 30.29 in 10.0 mi South 6.9 mph - N/A   Scattered Clouds
11:01 PM 44.6 °F 40.7 °F 35.6 °F 71% 30.29 in 10.0 mi South 6.9 mph - N/A   Clear
11:21 PM 44.6 °F 40.2 °F 35.6 °F 71% 30.29 in 10.0 mi South 8.1 mph - N/A   Clear